{"data":{"norad_id":68710,"epoch":"2026-09-20T03:37:26.508864Z","epoch_age_seconds":74967,"freshness":"FRESH","line1":"1 68710U 26081M   26263.15100126  .00011420  00000+0  34852-3 0  9996","line2":"2 68710  53.1583 207.4428 0001336  85.8128 274.3027 15.34408305 24566","mean_motion":15.34408305,"eccentricity":0.0001336,"inclination_deg":53.1583,"raan_deg":207.4428,"arg_perigee_deg":85.8128,"mean_anomaly_deg":274.3027,"bstar":0.00034852,"rev_number":2456,"period_min":93.847250129424,"perigee_km":461.76462314995,"apogee_km":463.59248906654,"semimajor_km":6840.8155561082,"source":"CELESTRAK","updated_at":"2026-09-20T09:00:43.959837Z"}}